{"data":{"norad_id":58740,"epoch":"2026-09-20T23:18:06.649056Z","epoch_age_seconds":109002,"freshness":"FRESH","line1":"1 58740U 24005N   26263.97091029  .00000643  00000+0  32895-4 0  9994","line2":"2 58740  42.9986 196.5359 0001533 255.4375 104.6307 15.27577300150403","mean_motion":15.275773,"eccentricity":0.0001533,"inclination_deg":42.9986,"raan_deg":196.5359,"arg_perigee_deg":255.4375,"mean_anomaly_deg":104.6307,"bstar":3.2895e-5,"rev_number":15040,"period_min":94.26691533057,"perigee_km":482.00535975496,"apogee_km":484.1090018908,"semimajor_km":6861.1941808229,"source":"CELESTRAK","updated_at":"2026-09-21T09:00:33.953700Z"}}